Flag for Canada Weather past 2 weeks in Saskatoon, Saskatchewan, Canada

Now
82 °F

Partly sunny.


Feels Like: 82 °F
Forecast: 60 / 78 °F
Wind: 7 mph from East

Location: Saskatoon Weather Station

Current Time: Jul 31, 2014 at 6:15:55 PM

Latest Report: Jul 31, 2014 at 5:00 PM


Visibility: 15 mi

Pressure: 30.07 "Hg

Humidity: 45%

Dew point: 59 °F

Location of SaskatoonLocation

Historic Weather in Saskatoon — Graph

°F

Saskatoon temperature yesterday

Maximum temperature yesterday: 81 °F (at 4:00 PM)
Minimum temperature yesterday: 61 °F (at 3:00 AM)
Average temperature yesterday: 71 °F

Past Weeks' High & Low Weather Summary

 TemperatureHumidityPressure
High82 °F (Jul 31, 1:00 PM)100% (Jul 18, 7:00 AM)30.32 "Hg (Jul 18, 7:00 AM)
Low48 °F (Jul 21, 4:00 AM)42% (Jul 31, 3:00 PM)29.50 "Hg (Jul 17, 10:00 PM)
Average66 °F77%29.94 "Hg
* Reported Jul 16 5:00 PM — Jul 31 5:00 PM, Saskatoon, Weather by CustomWeather, © 2014

Note: Actual official high and low records may vary slightly from our data, if they occured in-between our weather recording intervals... More about our weather records

Advertising

Saskatoon weather history for previous 24 hours

 ConditionsComfort  
Time TempWeatherWind HumidityBarometerVisibility
5:00 PM
Jul 31
82 °FPartly sunny.7 mph45%30.07 "Hg15 mi
4:00 PM82 °FPartly sunny.10 mph51%30.07 "Hg15 mi
3:00 PM82 °FScattered clouds.12 mph42%30.07 "Hg15 mi
2:00 PM82 °FPassing clouds.10 mph48%30.07 "Hg15 mi
1:00 PM82 °FPassing clouds.12 mph51%30.08 "Hg15 mi
12:00 PM81 °FScattered clouds.12 mph48%30.08 "Hg15 mi
11:00 AM79 °FPartly sunny.10 mph54%30.07 "Hg15 mi
10:00 AM77 °FPartly sunny.12 mph54%30.06 "Hg15 mi
9:00 AM73 °FPartly sunny.8 mph61%30.07 "Hg15 mi
8:00 AM64 °FPartly sunny.8 mph88%30.08 "Hg15 mi
7:00 AM64 °FPartly sunny.5 mph83%30.07 "Hg15 mi
6:00 AM61 °FScattered clouds.7 mph88%30.07 "Hg15 mi
5:00 AM59 °FPassing clouds.7 mph94%30.06 "Hg15 mi
4:00 AM61 °FPassing clouds.6 mph94%30.06 "Hg15 mi
3:00 AM64 °FPassing clouds.5 mph88%30.06 "Hg15 mi
2:00 AM66 °FPassing clouds.7 mph83%30.06 "Hg15 mi
1:00 AM64 °FPassing clouds.8 mph88%30.06 "Hg15 mi
12:00 AM68 °FPassing clouds.9 mph73%30.06 "Hg15 mi
11:00 PM
Jul 30
68 °FPassing clouds.9 mph78%30.06 "Hg15 mi
10:00 PM70 °FPassing clouds.10 mph69%30.06 "Hg15 mi
9:00 PM72 °FPassing clouds.12 mph65%30.07 "Hg15 mi
8:00 PM75 °FPassing clouds.10 mph61%30.07 "Hg15 mi
7:00 PM79 °FPassing clouds.16 mph51%30.08 "Hg15 mi
6:00 PM81 °FPassing clouds.15 mph51%30.08 "Hg15 mi
Weather by CustomWeather, © 2014

See weather overviewHow to use our weather pages